{"data":{"norad_id":68431,"intl_designator":"2026-067R","name":"DISCO-2","alt_names":[],"object_type":"PAYLOAD","status":"ACTIVE","operator":null,"country":"DEN","launch_date":"2026-03-30","launch_site_code":"AFWTR","launch_vehicle":null,"mission":null,"orbit_class":"UNKNOWN","rcs_meters":null,"size_class":null,"mass_kg":null,"dimensions":null,"purposes":[],"wikipedia_slug":null,"has_3d_model":false,"image_url":null,"decayed_at":null,"tle_current":{"epoch":"2026-09-20T03:06:08.564256Z","epoch_age_seconds":100938,"freshness":"FRESH","line1":"1 68431U 26067R   26263.12926579  .00005383  00000+0  25073-3 0  9991","line2":"2 68431  97.4705 220.6697 0003540  55.4398 304.7170 15.20325406 26361","mean_motion":15.20325406,"eccentricity":0.000354,"inclination_deg":97.4705,"raan_deg":220.6697,"arg_perigee_deg":55.4398,"mean_anomaly_deg":304.717,"bstar":0.00025073,"rev_number":2636,"period_min":94.716564908868,"perigee_km":502.42171408393,"apogee_km":507.29487475238,"semimajor_km":6882.9952944182,"source":"CELESTRAK","updated_at":"2026-09-20T09:00:24.202083Z"}}}